Latest Weather Observations for Longreach

IDQ60801

Issued at 5:02 pm EST Saturday 4 July 2015 (issued every 30 minutes, with the page automatically refreshed every 10 minutes)

About weather observations | Map of weather stations | Latest weather observations for QLD | Other Formats
Station Details ID: 036031 Name: LONGREACH AERO Lat: -23.44 Lon: 144.28 Height: 192.2 m
Data from the previous 72 hours. | See also: Recent months at Longreach
Date/Time
EST
Temp
°C
App
Temp
°C
Dew
Point
Rel
Hum
%
Delta-T
°C
Wind Press
QNH
hPa
Press
MSL
hPa
Rain
since 9 am
mm
Dir
 
Spd
km/h
Gust
km/h
Spd
kts
Gust
kts
04/05:00pm 23.5 18.5 -8.0 11 12.4 E 11 17 6 9 1017.8 - 0.0
04/04:30pm 24.1 19.4 -9.3 10 12.9 ENE 9 13 5 7 1017.7 - 0.0
04/04:00pm 24.1 19.7 -5.6 13 12.3 ENE 9 24 5 13 1017.5 - 0.0
04/03:30pm 24.1 19.1 -4.0 15 12.0 NE 13 20 7 11 1017.5 - 0.0
04/03:00pm 23.4 17.8 -6.5 13 12.1 E 15 24 8 13 1017.6 1017.4 0.0
04/02:30pm 23.3 18.3 -4.1 16 11.6 E 13 20 7 11 1017.8 - 0.0
04/02:00pm 23.2 17.7 -5.4 14 11.8 NE 15 22 8 12 1018.1 - 0.0
04/01:30pm 22.5 17.6 -3.3 17 11.0 NE 13 19 7 10 1018.5 - 0.0
04/01:00pm 21.8 16.7 -1.8 20 10.3 NNE 15 20 8 11 1019.2 - 0.0
04/12:30pm 21.3 15.9 -1.3 22 9.9 NE 17 20 9 11 1019.9 - 0.0
04/12:00pm 21.1 15.7 -1.3 22 9.8 NE 17 26 9 14 1020.5 1020.3 0.0
04/11:30am 20.2 13.4 -1.6 23 9.4 NE 24 28 13 15 1021.1 - 0.0
04/11:00am 19.2 12.2 -0.8 26 8.7 NE 26 33 14 18 1021.3 - 0.0
04/10:30am 18.1 11.5 -0.3 29 8.0 NE 24 33 13 18 1021.6 - 0.0
04/10:00am 16.9 9.6 -0.3 31 7.4 NE 28 35 15 19 1021.8 - 0.0
04/09:30am 15.4 8.5 0.3 35 6.5 NE 26 32 14 17 1021.9 - 0.0
04/09:00am 12.8 8.0 0.4 42 5.2 E 15 20 8 11 1021.8 1021.6 0.0
04/08:30am 10.4 6.0 0.1 49 4.2 E 13 17 7 9 1021.6 - 0.0
04/08:00am 8.3 4.2 -0.3 54 3.4 E 11 15 6 8 1021.5 - 0.0
04/07:30am 7.4 2.9 -0.3 58 3.0 ESE 13 15 7 8 1021.6 - 0.0
04/07:00am 7.4 2.5 -0.3 58 3.0 ESE 15 17 8 9 1021.3 - 0.0
04/06:30am 7.7 2.5 -0.2 57 3.1 ESE 17 19 9 10 1021.2 - 0.0
04/06:00am 7.7 2.5 0.1 58 3.0 ESE 17 19 9 10 1021.0 1020.8 0.0
04/05:30am 7.8 3.0 0.3 59 3.0 ESE 15 19 8 10 1020.9 - 0.0
04/05:00am 8.1 3.7 0.4 58 3.1 SE 13 15 7 8 1020.5 - 0.0
04/04:30am 8.7 3.9 0.2 55 3.4 ESE 15 17 8 9 1020.3 - 0.0
04/04:00am 8.8 3.3 0.4 55 3.4 SE 19 22 10 12 1020.2 - 0.0
04/03:30am 8.9 3.1 0.2 54 3.5 SE 20 26 11 14 1020.3 - 0.0
04/03:00am 8.8 3.6 0.4 55 3.4 SE 17 20 9 11 1020.5 1020.3 0.0
04/02:30am 9.4 3.7 0.6 54 3.6 SE 20 24 11 13 1020.6 - 0.0
04/02:00am 10.0 4.4 0.2 50 4.0 SE 19 26 10 14 1020.9 - 0.0
04/01:30am 10.1 4.4 0.3 50 4.0 SE 20 26 11 14 1021.0 - 0.0
04/01:00am 10.8 5.0 0.0 47 4.4 SE 20 26 11 14 1021.1 - 0.0
04/12:30am 10.9 5.3 0.2 47 4.4 SE 19 22 10 12 1021.2 - 0.0
04/12:00am 11.0 5.4 -0.3 45 4.6 SE 19 22 10 12 1021.2 1021.0 0.0
 
Date/Time
EST
Temp
°C
App
Temp
°C
Dew
Point
Rel
Hum
%
Delta-T
°C
Wind Press
QNH
hPa
Press
MSL
hPa
Rain
since 9 am
mm
Dir
 
Spd
km/h
Gust
km/h
Spd
kts
Gust
kts
03/11:30pm 10.9 5.7 -0.1 46 4.5 SE 17 20 9 11 1021.4 - 0.0
03/11:00pm 11.1 6.7 0.1 46 4.5 SE 13 17 7 9 1021.5 - 0.0
03/10:30pm 12.0 6.8 -0.1 43 5.0 SSE 17 17 9 9 1021.5 - 0.0
03/10:00pm 12.3 7.4 -0.3 42 5.2 SSE 15 15 8 8 1021.5 - 0.0
03/09:30pm 13.3 8.5 -0.1 39 5.6 SSE 15 17 8 9 1021.5 - 0.0
03/09:00pm 14.4 9.1 -0.7 35 6.3 SSE 17 19 9 10 1021.5 1021.3 0.0
03/08:30pm 14.8 9.4 -1.5 32 6.7 SSE 17 20 9 11 1021.4 - 0.0
03/08:00pm 14.9 9.7 -2.5 30 7.0 SSE 15 17 8 9 1021.1 - 0.0
03/07:30pm 15.2 10.9 -1.9 31 7.0 SSE 11 13 6 7 1021.1 - 0.0
03/07:00pm 16.0 11.1 -3.2 26 7.7 SSE 13 15 7 8 1020.8 - 0.0
03/06:30pm 16.7 11.9 -2.2 27 7.8 SSE 13 13 7 7 1020.4 - 0.0
03/06:00pm 18.3 13.1 -2.7 24 8.7 SSE 15 20 8 11 1020.2 1020.0 0.0
03/05:30pm 19.6 13.5 -3.8 20 9.6 SSE 19 24 10 13 1019.9 - 0.0
03/05:00pm 20.2 14.6 -2.8 21 9.7 S 17 26 9 14 1019.8 - 0.0
03/04:30pm 20.8 15.5 -3.2 19 10.1 SSE 15 20 8 11 1019.7 - 0.0
03/04:00pm 20.9 16.0 -3.5 19 10.2 SSE 13 20 7 11 1019.6 - 0.0
03/03:30pm 20.6 15.8 -2.8 20 9.9 S 13 19 7 10 1019.6 - 0.0
03/03:00pm 20.2 15.4 -2.4 21 9.6 SSE 13 19 7 10 1019.8 1019.6 0.0
03/02:30pm 20.5 15.8 -1.7 22 9.6 SSE 13 19 7 10 1020.0 - 0.0
03/02:00pm 19.5 14.5 -1.4 24 9.0 SSE 15 28 8 15 1020.2 - 0.0
03/01:30pm 18.9 14.6 -1.4 25 8.7 SE 11 19 6 10 1020.9 - 0.0
03/01:00pm 18.1 13.8 0.8 31 7.7 SE 13 20 7 11 1021.5 - 0.0
03/12:30pm 17.9 13.5 0.4 30 7.7 SSE 13 17 7 9 1022.1 - 0.0
03/12:00pm 17.3 12.5 0.4 32 7.4 SE 15 22 8 12 1022.6 1022.4 0.0
03/11:30am 16.3 11.8 0.0 33 7.0 SE 13 19 7 10 1023.1 - 0.0
03/11:00am 15.1 10.0 0.8 37 6.2 ESE 17 24 9 13 1023.7 - 0.0
03/10:30am 14.8 9.3 0.3 37 6.2 ESE 19 26 10 14 1023.9 - 0.0
03/10:00am 13.9 8.5 1.5 43 5.4 ESE 19 28 10 15 1023.9 - 0.0
03/09:30am 12.5 7.1 2.2 49 4.5 SE 20 28 11 15 1023.9 - 0.0
03/09:00am 11.7 6.0 2.8 54 3.9 SE 22 30 12 16 1023.6 1023.4 0.0
03/08:30am 10.9 6.2 3.2 59 3.4 SE 17 26 9 14 1023.4 - 0.0
03/08:00am 10.0 4.9 3.1 62 3.0 SE 19 24 10 13 1023.2 - 0.0
03/07:30am 9.3 4.0 3.0 65 2.7 SE 20 26 11 14 1022.9 - 0.0
03/07:00am 8.9 3.6 3.1 67 2.5 SE 20 28 11 15 1022.8 - 0.0
03/06:30am 8.9 3.3 3.4 68 2.4 SE 22 28 12 15 1022.4 - 0.0
03/06:00am 9.3 3.7 3.6 67 2.5 SSE 22 28 12 15 1022.1 1021.9 0.0
03/05:30am 9.6 4.6 3.7 66 2.6 SSE 19 26 10 14 1021.9 - 0.0
03/05:00am 9.3 4.4 4.1 70 2.3 SSE 19 22 10 12 1021.6 - 0.0
03/04:30am 10.0 5.9 4.4 68 2.5 SSE 15 19 8 10 1022.0 - 0.0
03/04:00am 10.4 6.4 4.7 68 2.6 SE 15 20 8 11 1021.9 - 0.0
03/03:30am 11.1 6.3 4.7 64 2.9 SE 19 26 10 14 1021.7 - 0.0
03/03:00am 11.8 7.5 5.1 63 3.1 SE 17 28 9 15 1022.0 1021.8 0.0
03/02:30am 11.5 7.1 5.0 64 3.0 SSE 17 20 9 11 1022.0 - 0.0
03/02:00am 11.9 7.1 4.7 61 3.3 S 19 24 10 13 1022.1 - 0.0
03/01:30am 12.3 7.5 4.4 58 3.6 S 19 26 10 14 1022.2 - 0.0
03/01:00am 12.6 7.6 4.5 58 3.7 S 20 28 11 15 1022.4 - 0.0
03/12:30am 12.9 7.9 4.4 56 3.9 SSE 20 26 11 14 1022.5 - 0.0
03/12:00am 13.3 8.2 4.1 53 4.2 SSE 20 26 11 14 1022.6 1022.4 0.0
 
Date/Time
EST
Temp
°C
App
Temp
°C
Dew
Point
Rel
Hum
%
Delta-T
°C
Wind Press
QNH
hPa
Press
MSL
hPa
Rain
since 9 am
mm
Dir
 
Spd
km/h
Gust
km/h
Spd
kts
Gust
kts
02/11:30pm 13.5 8.3 3.8 52 4.4 S 20 26 11 14 1022.9 - 0.0
02/11:00pm 13.7 9.1 3.8 51 4.5 S 17 22 9 12 1023.3 - 0.0
02/10:30pm 13.9 9.4 4.1 51 4.5 S 17 19 9 10 1023.4 - 0.0
02/10:00pm 14.5 10.4 4.1 49 4.8 S 15 17 8 9 1023.6 - 0.0
02/09:30pm 14.8 10.6 4.0 48 5.0 S 15 17 8 9 1023.5 - 0.0
02/09:00pm 15.6 11.4 4.0 46 5.4 S 15 17 8 9 1023.3 1023.1 0.0
02/08:30pm 15.7 12.3 4.1 46 5.4 S 11 13 6 7 1023.2 - 0.0
02/08:00pm 16.3 12.9 4.2 44 5.7 S 11 13 6 7 1023.1 - 0.0
02/07:30pm 16.7 13.4 4.5 44 5.8 SSE 11 11 6 6 1022.7 - 0.0
02/07:00pm 17.7 14.1 4.8 42 6.2 S 13 13 7 7 1022.3 - 0.0
02/06:30pm 18.7 14.9 4.0 37 7.0 S 13 15 7 8 1021.9 - 0.0
02/06:00pm 19.5 15.6 3.5 34 7.6 S 13 17 7 9 1021.5 1021.3 0.0
02/05:30pm 20.4 15.3 2.8 31 8.3 S 19 24 10 13 1021.3 - 0.0
02/05:00pm 21.1 15.8 3.1 30 8.6 SSE 20 30 11 16 1020.9 - 0.0
02/04:30pm 21.2 15.9 3.2 30 8.6 S 20 24 11 13 1020.9 - 0.0
02/04:00pm 21.8 16.0 2.3 27 9.2 S 22 35 12 19 1020.5 - 0.0
02/03:30pm 21.5 16.3 2.4 28 9.0 SSW 19 22 10 12 1020.8 - 0.0
02/03:00pm 21.9 16.6 1.8 26 9.4 SSW 19 30 10 16 1020.9 1020.6 0.0
02/02:30pm 22.2 17.3 2.0 26 9.5 S 17 26 9 14 1021.0 - 0.0
02/02:00pm 21.8 16.9 2.0 27 9.3 S 17 26 9 14 1021.4 - 0.0
02/01:30pm 21.7 16.8 1.8 27 9.3 S 17 28 9 15 1022.0 - 0.0
02/01:00pm 21.2 16.2 4.5 33 8.2 SSE 20 30 11 16 1022.4 - 0.0
02/12:30pm 21.2 16.8 4.7 34 8.1 SE 17 26 9 14 1023.0 - 0.0
02/12:00pm 20.3 15.8 5.9 39 7.2 SE 19 26 10 14 1023.6 1023.4 0.0
02/11:30am 20.0 15.8 7.3 43 6.5 SSE 19 26 10 14 1024.4 - 0.0
02/11:00am 18.8 15.3 8.6 51 5.3 SSE 17 26 9 14 1024.7 - 0.0
02/10:30am 18.0 14.2 9.0 55 4.7 SSE 19 28 10 15 1025.0 - 0.0
02/10:00am 17.1 13.4 9.5 61 4.0 SE 19 24 10 13 1025.3 - 0.0
02/09:30am 15.9 12.0 9.6 66 3.3 SSE 20 26 11 14 1025.3 - 0.0
02/09:00am 14.6 10.7 9.6 72 2.6 SSE 20 28 11 15 1025.1 1024.9 0.0
02/08:30am 13.2 9.3 9.5 78 1.9 SE 20 24 11 13 1024.9 - 0.0
02/08:00am 11.9 8.9 9.1 83 1.4 S 15 19 8 10 1024.9 - 0.0
02/07:30am 10.6 8.0 9.2 91 0.7 S 13 15 7 8 1024.4 - 0.0
02/07:00am 10.4 7.7 9.0 91 0.7 S 13 17 7 9 1024.3 - 0.0
02/06:30am 10.8 7.8 9.2 90 0.8 SE 15 19 8 10 1023.8 - 0.0
02/06:00am 11.0 7.7 9.4 90 0.8 SSE 17 19 9 10 1023.7 1023.5 0.0
02/05:30am 11.9 8.6 9.7 86 1.1 SSE 17 20 9 11 1023.4 - 0.0
02/05:00am 11.9 8.6 9.7 86 1.1 SSE 17 19 9 10 1023.3 - 0.0
02/04:30am 12.4 10.0 9.9 85 1.3 SSE 13 17 7 9 1023.3 - 0.0
02/04:00am 12.9 9.7 10.0 82 1.5 SSE 17 20 9 11 1023.4 - 0.0
02/03:30am 13.1 9.9 9.8 80 1.7 SE 17 22 9 12 1023.3 - 0.0
02/03:00am 13.5 9.8 10.0 79 1.8 SE 20 28 11 15 1023.4 1023.2 0.0
02/02:30am 13.8 10.0 9.9 77 2.0 SE 20 26 11 14 1023.6 - 0.0
02/02:00am 14.3 10.5 9.9 75 2.3 SE 20 26 11 14 1023.8 - 0.0
02/01:30am 14.7 10.5 9.9 73 2.5 SE 22 28 12 15 1023.8 - 0.0
02/01:00am 15.2 11.0 9.6 69 2.9 SE 22 28 12 15 1023.9 - 0.0
02/12:30am 15.7 11.3 9.1 65 3.4 SE 22 30 12 16 1023.9 - 0.0
02/12:00am 16.6 12.7 8.6 59 4.1 SSE 19 26 10 14 1024.0 1023.8 0.0
 
Date/Time
EST
Temp
°C
App
Temp
°C
Dew
Point
Rel
Hum
%
Delta-T
°C
Wind Press
QNH
hPa
Press
MSL
hPa
Rain
since 9 am
mm
Dir
 
Spd
km/h
Gust
km/h
Spd
kts
Gust
kts
01/11:30pm 16.4 12.2 7.4 55 4.5 SSE 19 24 10 13 1024.0 - 0.0
01/11:00pm 16.7 12.4 6.8 52 4.9 SSE 19 24 10 13 1024.1 - 0.0
01/10:30pm 17.2 13.5 6.5 49 5.3 SSE 15 19 8 10 1024.0 - 0.0
01/10:00pm 17.7 14.1 6.7 48 5.5 S 15 17 8 9 1023.8 - 0.0
01/09:30pm 17.9 14.6 6.2 46 5.8 S 13 15 7 8 1023.7 - 0.0
01/09:00pm 18.8 15.1 6.1 43 6.3 S 15 17 8 9 1023.5 1023.3 0.0
01/08:30pm 18.6 15.6 6.1 44 6.2 S 11 13 6 7 1023.3 - 0.0
01/08:00pm 19.3 16.9 7.1 45 6.2 S 9 11 5 6 1023.1 - 0.0
01/07:30pm 19.8 16.9 6.5 42 6.7 S 11 13 6 7 1022.9 - 0.0
01/07:00pm 21.0 18.0 5.9 37 7.6 S 11 13 6 7 1022.5 - 0.0
01/06:30pm 21.7 18.0 6.1 36 7.9 S 15 19 8 10 1022.2 - 0.0
01/06:00pm 22.7 19.0 6.3 34 8.4 S 15 19 8 10 1022.0 1021.8 0.0
01/05:30pm 23.6 19.7 6.9 34 8.7 S 17 24 9 13 1021.8 - 0.0

Other Formats:

Comma delimited format used in spreadsheet applications
http://www.bom.gov.au/fwo/IDQ60801/IDQ60801.94346.axf

JavaScript Object Notation format (JSON) in row-major order
http://www.bom.gov.au/fwo/IDQ60801/IDQ60801.94346.json